Meteo Giornale » Osservazioni meteo Stati Uniti (USA) » Crescent City Jack McNamara Fld
ore: 05:56 - Osservazioni Meteo Crescent City Jack McNamara Fld
Lat. 41° 46' N Lon. 124° 14' W Alt. 17 metri s.l.m.
14 °C
Coperto
Temp. 24 Ore
14 °C
17 °C
Sud/Sud-Est
7.4 Km/h
Dew point 14 °C
Umidità 100 %
Visibilità 14 Km
Il sole sorge alle ore 06:43
Il sole tramonta alle ore 19:50
| Data e Ora | Cielo e Fenomeni | T °C | DP °C | Um. % | Pres. hPa | Vis. km | Vento km/h | |
|---|---|---|---|---|---|---|---|---|
| Oggi h: 05:56 | Coperto | 14 | 14 | 100 | 1012 | 14 | S/SE 7.4 | |
| Oggi h: 05:15 | Foschia | 14 | 14 | 100 | 1012 | 10 | SE 7.4 | |
| Oggi h: 05:05 | Pioggia Foschia | 14 | 14 | 100 | 1012 | 5 | SE 7.4 | |
| Oggi h: 04:56 | Pioggia Foschia | 14 | 14 | 100 | 1013 | 5 | S/SE 7.4 | |
| Oggi h: 04:49 | Pioggia Foschia | 14 | 14 | 100 | 1013 | 6 | N 5.5 | |
| Oggi h: 03:56 | Foschia | 14 | 14 | 100 | 1013 | 8 | N 0 | |
| Oggi h: 03:46 | Coperto | 14 | 13 | 93 | 1013 | 14 | N 5.5 | |
| Oggi h: 02:56 | Coperto | 14 | 13 | 93 | 1013 | 10 | E 7.4 | |
| Oggi h: 01:56 | Coperto | 15 | 13 | 87 | 1013 | 10 | N 0 | |
| Oggi h: 00:56 | Coperto | 14 | 13 | 93 | 1013 | 10 | N 0 | |
| Ieri h: 23:56 | Coperto | 14 | 13 | 93 | 1013 | 10 | N 0 | |
| Ieri h: 23:13 | Coperto | 15 | 13 | 87 | 1013 | 10 | N 0 | |
| Ieri h: 22:56 | Coperto | 14 | 13 | 93 | 1013 | 10 | N 0 | |
| Ieri h: 21:56 | Coperto | 14 | 13 | 93 | 1014 | 10 | N 0 | |
| Ieri h: 20:56 | Coperto | 14 | 13 | 93 | 1014 | 10 | S 9.3 | |
| Ieri h: 19:56 | Coperto | 14 | 12 | 87 | 1013 | 10 | S/SO 7.4 | |
| Ieri h: 19:46 | Coperto | 14 | 12 | 87 | 1013 | 10 | SO 11.1 | |
| Ieri h: 18:56 | Coperto | 14 | 12 | 87 | 1013 | 10 | S/SO 13 | |
| Ieri h: 17:56 | Coperto | 14 | 13 | 93 | 1013 | 10 | S/SO 20.3 | |
| Ieri h: 17:17 | Coperto | 16 | 13 | 82 | 1012 | 10 | S 29.6 | |
| Ieri h: 16:56 | Coperto | 16 | 12 | 77 | 1012 | 10 | S 29.6 | |
| Ieri h: 16:31 | Molto Nuvoloso | 16 | 12 | 77 | 1012 | 10 | S 27.8 | |
| Ieri h: 16:08 | Coperto | 16 | 12 | 77 | 1012 | 10 | S 27.8 | |
| Ieri h: 15:56 | Coperto | 16 | 13 | 82 | 1012 | 10 | S 24 | |
| Ieri h: 14:56 | Molto Nuvoloso | 17 | 13 | 77 | 1012 | 10 | S 27.8 | |
| Ieri h: 14:32 | Coperto | 17 | 12 | 72 | 1012 | 10 | S 27.8 | |
| Ieri h: 13:56 | Coperto | 17 | 13 | 77 | 1012 | 10 | S 27.8 | |
| Ieri h: 13:52 | Coperto | 17 | 13 | 77 | 1012 | 10 | S 27.8 | |
| Ieri h: 13:36 | Coperto | 17 | 13 | 77 | 1012 | 10 | S 31.5 | |
| Ieri h: 12:56 | Coperto | 17 | 13 | 77 | 1012 | 10 | S/SE 20.3 | |
| Ieri h: 11:56 | Coperto | 17 | 13 | 77 | 1012 | 10 | S/SE 22.2 | |
| Ieri h: 11:33 | Coperto | 17 | 12 | 72 | 1012 | 10 | S/SE 16.7 | |
| Ieri h: 10:56 | Coperto | 16 | 12 | 77 | 1012 | 10 | S/SE 20.3 | |
| Ieri h: 09:56 | Coperto | 16 | 12 | 77 | 1012 | 10 | S 20.3 | |
| Ieri h: 08:56 | Coperto | 15 | 12 | 82 | 1012 | 10 | S/SE 20.3 | |
| Ieri h: 08:31 | Coperto | 14 | 12 | 87 | 1012 | 10 | S/SE 20.3 | |
| Ieri h: 07:42 | Coperto | 14 | 12 | 87 | 1012 | 10 | S/SE 20.3 | |
| Ieri h: 06:56 | Coperto | 14 | 12 | 87 | 1011 | 10 | S/SE 24 | |



